QPF
0.00 0.00 0.00 0.00 0.00 0.00 0.00 0.00 0.00 0.00 0.00 0.00 0.00 0.00 0.00 0.00 0.00 0.00 0.00 0.00 0.00 0.00 0.00 0.00 0.00 0.00 0.00 0.00 0.00 0.00 0.00 0.00 0.00 0.00 0.00 0.00 0.00 0.00 0.00 0.00 0.00 0.00 0.00 0.00 0.00 0.00 0.00 0.01 0.01 0.02 0.04 0.05 0.06 0.08 0.09 0.10 0.11 0.12 0.12 0.12 0.09 0.08 0.07 0.06 0.06 0.06 0.05 0.04 0.03
0.00 0.00 0.00 0.00 0.00 0.00 0.00 0.00 0.00 0.00 0.00 0.00 0.00 0.00 0.00 0.00 0.00 0.00 0.00 0.00 0.00 0.00 0.00 0.00 0.00 0.00 0.00 0.00 0.00 0.00 0.00 0.00 0.00 0.00 0.00 0.00 0.00 0.00 0.00 0.00 0.00 0.00 0.00 0.00 0.00 0.00 0.00 0.00 0.01 0.03 0.04 0.06 0.08 0.10 0.11 0.13 0.13 0.12 0.11 0.11 0.06 0.04 0.03 0.03 0.03 0.03 0.02 0.02 0.01
0.00 0.00 0.00 0.00 0.00 0.00 0.00 0.00 0.00 0.00 0.00 0.00 0.00 0.00 0.00 0.00 0.00 0.00 0.00 0.00 0.00 0.00 0.00 0.00 0.00 0.00 0.00 0.00 0.00 0.00 0.00 0.00 0.00 0.00 0.00 0.00 0.00 0.00 0.00 0.00 0.00 0.00 0.00 0.00 0.00 0.00 0.00 0.00 0.01 0.02 0.03 0.04 0.05 0.07 0.08 0.08 0.07 0.07 0.06 0.06 0.04 0.03 0.02 0.02 0.02 0.01 0.01 0.01 0.01
0.00 0.00 0.00 0.00 0.00 0.00 0.00 0.00 0.00 0.00 0.00 0.00 0.00 0.00 0.00 0.00 0.00 0.00 0.00 0.00 0.00 0.00 0.00 0.00 0.00 0.00 0.00 0.00 0.00 0.00 0.00 0.00 0.00 0.00 0.00 0.00 0.00 0.00 0.00 0.00 0.00 0.00 0.00 0.00 0.00 0.00 0.00 0.00 0.01 0.02 0.02 0.03 0.03 0.03 0.04 0.04 0.04 0.04 0.04 0.03 0.02 0.02 0.02 0.01 0.01 0.01 0.01 0.00 0.00
0.00 0.00 0.00 0.00 0.00 0.00 0.00 0.00 0.00 0.00 0.00 0.00 0.00 0.00 0.00 0.00 0.00 0.00 0.00 0.00 0.00 0.00 0.00 0.00 0.00 0.00 0.00 0.00 0.00 0.00 0.00 0.00 0.00 0.00 0.00 0.00 0.00 0.00 0.00 0.00 0.00 0.00 0.00 0.00 0.00 0.00 0.00 0.02 0.02 0.03 0.03 0.03 0.03 0.03 0.03 0.03 0.03 0.03 0.03 0.01 0.01 0.01 0.00 0.00 0.00 0.00 0.00 0.00 0.00
0.00 0.00 0.00 0.00 0.00 0.00 0.00 0.00 0.00 0.00 0.00 0.00 0.00 0.00 0.00 0.00 0.00 0.00 0.00 0.00 0.00 0.00 0.00 0.00 0.00 0.00 0.00 0.00 0.00 0.00 0.00 0.00 0.00 0.00 0.00 0.00 0.00 0.00 0.00 0.00 0.00 0.00 0.00 0.00 0.00 0.01 0.01 0.02 0.02 0.02 0.03 0.03 0.03 0.02 0.02 0.02 0.02 0.02 0.01 0.00 0.00 0.00 0.00 0.00 0.00 0.00 0.00 0.00 0.00
0.00 0.00 0.00 0.00 0.00 0.00 0.00 0.00 0.00 0.00 0.00 0.00 0.00 0.00 0.00 0.00 0.00 0.00 0.00 0.00 0.00 0.00 0.00 0.00 0.00 0.00 0.00 0.00 0.00 0.00 0.00 0.00 0.00 0.00 0.00 0.00 0.00 0.00 0.00 0.00 0.00 0.00 0.00 0.00 0.01 0.01 0.01 0.01 0.01 0.01 0.02 0.02 0.01 0.01 0.01 0.01 0.00 0.00 0.00 0.00 0.00 0.00 0.00 0.00 0.00 0.00 0.00 0.00 0.00
0.00 0.00 0.00 0.00 0.00 0.00 0.00 0.00 0.00 0.00 0.00 0.00 0.00 0.00 0.00 0.00 0.00 0.00 0.00 0.00 0.00 0.00 0.00 0.00 0.00 0.00 0.00 0.00 0.00 0.00 0.00 0.00 0.00 0.00 0.00 0.00 0.00 0.00 0.00 0.00 0.00 0.00 0.00 0.00 0.01 0.00 0.00 0.00 0.00 0.00 0.01 0.01 0.00 0.00 0.00 0.00 0.00 0.00 0.00 0.00 0.00 0.00 0.00 0.00 0.00 0.00 0.00 0.00 0.00
0.00 0.00 0.00 0.00 0.00 0.00 0.00 0.00 0.00 0.00 0.00 0.00 0.00 0.00 0.00 0.00 0.00 0.00 0.00 0.00 0.00 0.00 0.00 0.00 0.00 0.00 0.00 0.00 0.00 0.00 0.00 0.00 0.00 0.00 0.00 0.00 0.00 0.00 0.00 0.00 0.00 0.00 0.00 0.00 0.00 0.00 0.00 0.00 0.00 0.00 0.00 0.00 0.00 0.00 0.00 0.00 0.00 0.00 0.00 0.00 0.00 0.00 0.00 0.00 0.00 0.00 0.00 0.00 0.00
0.00 0.00 0.00 0.00 0.00 0.00 0.00 0.00 0.00 0.00 0.00 0.00 0.00 0.00 0.00 0.00 0.00 0.00 0.00 0.00 0.00 0.00 0.00 0.00 0.00 0.00 0.00 0.00 0.00 0.00 0.00 0.00 0.00 0.00 0.00 0.00 0.00 0.00 0.00 0.00 0.00 0.00 0.00 0.00 0.00 0.00 0.00 0.00 0.00 0.00 0.00 0.00 0.00 0.00 0.00 0.00 0.00 0.00 0.00 0.00 0.00 0.00 0.00 0.00 0.00 0.00 0.00 0.00 0.00
0.00 0.00 0.00 0.00 0.00 0.00 0.00 0.00 0.00 0.00 0.00 0.00 0.00 0.00 0.00 0.00 0.00 0.00 0.00 0.00 0.00 0.00 0.00 0.00 0.00 0.00 0.00 0.00 0.00 0.00 0.00 0.00 0.01 0.01 0.01 0.01 0.00 0.00 0.00 0.00 0.00 0.00 0.00 0.00 0.00 0.00 0.00 0.00 0.00 0.00 0.00 0.00 0.00 0.00 0.00 0.00 0.00 0.00 0.00 0.00 0.00 0.00 0.00 0.00 0.00 0.00 0.00 0.00 0.00
0.00 0.00 0.00 0.00 0.00 0.00 0.00 0.00 0.00 0.00 0.00 0.00 0.00 0.00 0.00 0.00 0.00 0.00 0.00 0.00 0.00 0.00 0.00 0.00 0.00 0.00 0.00 0.00 0.00 0.00 0.00 0.01 0.01 0.01 0.01 0.01 0.00 0.00 0.00 0.00 0.00 0.00 0.00 0.00 0.00 0.00 0.00 0.00 0.00 0.00 0.00 0.00 0.00 0.00 0.00 0.00 0.00 0.00 0.00 0.00 0.00 0.00 0.00 0.00 0.00 0.00 0.00 0.00 0.00
0.00 0.00 0.00 0.00 0.00 0.00 0.00 0.00 0.00 0.00 0.00 0.00 0.00 0.00 0.00 0.00 0.00 0.00 0.00 0.00 0.00 0.00 0.00 0.00 0.00 0.00 0.00 0.00 0.00 0.01 0.01 0.02 0.02 0.02 0.02 0.01 0.00 0.00 0.00 0.00 0.00 0.00 0.00 0.00 0.00 0.00 0.00 0.00 0.00 0.00 0.00 0.00 0.00 0.00 0.00 0.00 0.00 0.00 0.00 0.00 0.00 0.00 0.00 0.00 0.00 0.00 0.00 0.00 0.00
0.00 0.00 0.00 0.00 0.00 0.00 0.00 0.00 0.00 0.00 0.00 0.00 0.00 0.00 0.00 0.00 0.00 0.00 0.00 0.00 0.00 0.00 0.00 0.00 0.00 0.00 0.00 0.00 0.01 0.01 0.02 0.03 0.03 0.03 0.02 0.01 0.00 0.00 0.00 0.00 0.00 0.00 0.00 0.00 0.00 0.00 0.00 0.00 0.00 0.00 0.00 0.00 0.00 0.00 0.00 0.00 0.00 0.00 0.00 0.00 0.00 0.00 0.00 0.00 0.00 0.00 0.00 0.00 0.00
0.00 0.00 0.00 0.00 0.00 0.00 0.00 0.00 0.00 0.00 0.00 0.00 0.00 0.00 0.00 0.00 0.00 0.00 0.00 0.00 0.00 0.00 0.00 0.00 0.00 0.00 0.01 0.01 0.01 0.02 0.03 0.04 0.04 0.03 0.02 0.01 0.00 0.00 0.00 0.00 0.00 0.00 0.00 0.00 0.00 0.00 0.00 0.00 0.00 0.00 0.00 0.00 0.00 0.00 0.00 0.00 0.00 0.00 0.00 0.00 0.00 0.00 0.00 0.00 0.00 0.00 0.00 0.00 0.00
0.00 0.00 0.00 0.00 0.00 0.00 0.00 0.00 0.00 0.00 0.00 0.00 0.00 0.00 0.00 0.00 0.00 0.00 0.00 0.00 0.00 0.00 0.00 0.00 0.00 0.00 0.01 0.01 0.02 0.03 0.03 0.04 0.04 0.03 0.02 0.00 0.00 0.00 0.00 0.00 0.00 0.00 0.00 0.00 0.00 0.00 0.00 0.00 0.00 0.00 0.00 0.00 0.00 0.00 0.00 0.00 0.00 0.00 0.00 0.00 0.00 0.00 0.00 0.00 0.00 0.00 0.00 0.00 0.00
0.00 0.00 0.00 0.00 0.00 0.00 0.00 0.00 0.00 0.00 0.00 0.00 0.00 0.00 0.00 0.00 0.00 0.00 0.00 0.00 0.00 0.00 0.00 0.00 0.00 0.00 0.01 0.01 0.02 0.02 0.03 0.03 0.03 0.02 0.01 0.00 0.00 0.00 0.00 0.00 0.00 0.00 0.00 0.00 0.00 0.00 0.00 0.00 0.00 0.00 0.00 0.00 0.00 0.00 0.00 0.00 0.00 0.00 0.00 0.00 0.00 0.00 0.00 0.00 0.00 0.00 0.00 0.00 0.00
0.00 0.00 0.00 0.00 0.00 0.00 0.00 0.00 0.00 0.00 0.00 0.00 0.00 0.00 0.00 0.00 0.00 0.00 0.00 0.00 0.00 0.00 0.00 0.00 0.00 0.00 0.00 0.01 0.01 0.01 0.01 0.01 0.01 0.01 0.00 0.00 0.00 0.00 0.00 0.00 0.00 0.00 0.00 0.00 0.00 0.00 0.00 0.00 0.00 0.00 0.00 0.00 0.00 0.00 0.00 0.00 0.00 0.00 0.00 0.00 0.00 0.00 0.00 0.00 0.00 0.00 0.00 0.00 0.00
0.00 0.00 0.00 0.00 0.00 0.00 0.00 0.00 0.00 0.00 0.00 0.00 0.00 0.00 0.00 0.00 0.00 0.00 0.00 0.00 0.00 0.00 0.00 0.00 0.00 0.00 0.00 0.00 0.00 0.00 0.00 0.00 0.00 0.00 0.00 0.00 0.00 0.00 0.00 0.00 0.00 0.00 0.00 0.00 0.00 0.00 0.00 0.00 0.00 0.00 0.00 0.00 0.00 0.00 0.00 0.00 0.00 0.00 0.00 0.00 0.00 0.00 0.00 0.00 0.00 0.00 0.00 0.00 0.00
0.00 0.00 0.00 0.00 0.00 0.00 0.00 0.00 0.00 0.00 0.00 0.00 0.00 0.00 0.00 0.00 0.00 0.00 0.00 0.00 0.00 0.00 0.00 0.00 0.00 0.00 0.00 0.00 0.00 0.00 0.00 0.00 0.00 0.00 0.00 0.00 0.00 0.00 0.00 0.00 0.00 0.00 0.00 0.00 0.00 0.00 0.00 0.00 0.00 0.00 0.00 0.00 0.00 0.00 0.00 0.00 0.00 0.00 0.00 0.00 0.00 0.00 0.00 0.00 0.00 0.00 0.00 0.00 0.00
0.00 0.00 0.00 0.00 0.00 0.00 0.00 0.00 0.00 0.00 0.00 0.00 0.00 0.00 0.00 0.00 0.00 0.00 0.00 0.00 0.00 0.00 0.00 0.00 0.00 0.00 0.00 0.00 0.00 0.00 0.00 0.00 0.00 0.00 0.00 0.00 0.00 0.00 0.00 0.00 0.00 0.00 0.00 0.00 0.00 0.00 0.00 0.00 0.00 0.00 0.00 0.00 0.00 0.00 0.00 0.00 0.00 0.00 0.00 0.00 0.00 0.00 0.00 0.00 0.00 0.00 0.00 0.00 0.00
0.00 0.00 0.00 0.00 0.00 0.00 0.00 0.00 0.00 0.00 0.00 0.00 0.00 0.00 0.00 0.00 0.00 0.00 0.00 0.00 0.00 0.00 0.00 0.00 0.00 0.00 0.00 0.00 0.00 0.00 0.00 0.00 0.00 0.00 0.00 0.00 0.00 0.00 0.00 0.00 0.00 0.00 0.00 0.00 0.00 0.00 0.00 0.00 0.00 0.00 0.00 0.00 0.00 0.00 0.00 0.00 0.00 0.00 0.00 0.00 0.00 0.00 0.00 0.00 0.00 0.00 0.00 0.00 0.00
0.00 0.00 0.00 0.00 0.00 0.00 0.00 0.00 0.00 0.00 0.00 0.00 0.00 0.00 0.00 0.00 0.00 0.00 0.00 0.00 0.00 0.00 0.00 0.00 0.00 0.00 0.00 0.00 0.00 0.00 0.00 0.00 0.00 0.00 0.00 0.00 0.00 0.00 0.00 0.00 0.00 0.00 0.00 0.00 0.00 0.00 0.00 0.00 0.00 0.00 0.00 0.00 0.00 0.00 0.00 0.00 0.00 0.00 0.00 0.00 0.00 0.00 0.00 0.00 0.00 0.00 0.00 0.00 0.00
0.00 0.00 0.00 0.00 0.00 0.00 0.00 0.00 0.00 0.00 0.00 0.00 0.00 0.00 0.00 0.00 0.00 0.00 0.00 0.00 0.00 0.00 0.00 0.00 0.00 0.00 0.00 0.00 0.00 0.00 0.00 0.00 0.00 0.00 0.00 0.00 0.00 0.00 0.00 0.00 0.00 0.00 0.00 0.00 0.00 0.00 0.00 0.00 0.00 0.00 0.00 0.00 0.00 0.00 0.00 0.00 0.00 0.00 0.00 0.00 0.00 0.00 0.00 0.00 0.00 0.00 0.00 0.00 0.00
0.00 0.00 0.00 0.00 0.00 0.00 0.00 0.00 0.00 0.00 0.00 0.00 0.00 0.00 0.00 0.00 0.00 0.00 0.00 0.00 0.00 0.00 0.00 0.00 0.00 0.00 0.00 0.00 0.00 0.00 0.00 0.00 0.00 0.00 0.00 0.00 0.00 0.00 0.00 0.00 0.00 0.00 0.00 0.00 0.00 0.00 0.00 0.00 0.00 0.00 0.00 0.00 0.00 0.00 0.00 0.00 0.00 0.00 0.00 0.00 0.00 0.00 0.00 0.00 0.00 0.00 0.00 0.00 0.00
0.00 0.00 0.00 0.00 0.00 0.00 0.00 0.00 0.00 0.00 0.00 0.00 0.00 0.00 0.00 0.00 0.00 0.00 0.00 0.00 0.00 0.00 0.00 0.00 0.00 0.00 0.00 0.00 0.00 0.00 0.00 0.00 0.00 0.00 0.00 0.00 0.00 0.00 0.00 0.00 0.00 0.00 0.00 0.00 0.00 0.00 0.00 0.00 0.00 0.00 0.00 0.00 0.00 0.00 0.00 0.00 0.00 0.00 0.00 0.00 0.00 0.00 0.00 0.00 0.00 0.00 0.00 0.00 0.00
0.00 0.00 0.00 0.00 0.00 0.00 0.00 0.00 0.00 0.00 0.00 0.00 0.00 0.00 0.00 0.00 0.00 0.00 0.00 0.00 0.00 0.00 0.00 0.00 0.00 0.00 0.00 0.00 0.00 0.00 0.00 0.00 0.00 0.00 0.00 0.00 0.00 0.00 0.00 0.00 0.00 0.00 0.00 0.00 0.00 0.00 0.00 0.00 0.00 0.00 0.00 0.00 0.00 0.00 0.00 0.00 0.00 0.00 0.00 0.00 0.00 0.00 0.00 0.00 0.00 0.00 0.00 0.00 0.00
0.00 0.00 0.00 0.00 0.00 0.00 0.00 0.00 0.00 0.00 0.00 0.00 0.00 0.00 0.00 0.00 0.00 0.00 0.00 0.00 0.00 0.00 0.00 0.00 0.00 0.00 0.00 0.00 0.00 0.00 0.00 0.00 0.00 0.00 0.00 0.00 0.00 0.00 0.00 0.00 0.00 0.00 0.00 0.00 0.00 0.00 0.00 0.00 0.00 0.00 0.00 0.00 0.00 0.00 0.00 0.00 0.00 0.00 0.00 0.00 0.00 0.00 0.00 0.00 0.00 0.00 0.00 0.00 0.00
0.00 0.00 0.00 0.00 0.00 0.00 0.00 0.00 0.00 0.00 0.00 0.00 0.00 0.00 0.00 0.00 0.00 0.00 0.00 0.00 0.00 0.00 0.00 0.00 0.00 0.00 0.00 0.00 0.00 0.00 0.00 0.00 0.00 0.00 0.00 0.00 0.00 0.00 0.00 0.00 0.00 0.00 0.00 0.00 0.00 0.00 0.00 0.00 0.00 0.00 0.00 0.00 0.00 0.00 0.00 0.00 0.00 0.00 0.00 0.00 0.00 0.00 0.00 0.00 0.00 0.00 0.00 0.00 0.00
0.00 0.00 0.00 0.00 0.00 0.00 0.00 0.00 0.00 0.00 0.00 0.00 0.00 0.00 0.00 0.00 0.00 0.00 0.00 0.00 0.00 0.00 0.00 0.00 0.00 0.00 0.00 0.00 0.00 0.00 0.00 0.00 0.00 0.00 0.00 0.00 0.00 0.00 0.00 0.00 0.00 0.00 0.00 0.00 0.00 0.00 0.00 0.00 0.00 0.00 0.00 0.00 0.00 0.00 0.00 0.00 0.00 0.00 0.00 0.00 0.00 0.00 0.00 0.00 0.00 0.00 0.00 0.00 0.00
0.00 0.00 0.00 0.00 0.00 0.00 0.00 0.00 0.00 0.00 0.00 0.00 0.00 0.00 0.00 0.00 0.00 0.00 0.00 0.00 0.00 0.00 0.00 0.00 0.00 0.00 0.00 0.00 0.00 0.00 0.00 0.00 0.00 0.00 0.00 0.00 0.00 0.00 0.00 0.00 0.00 0.00 0.00 0.00 0.00 0.00 0.00 0.00 0.00 0.00 0.00 0.00 0.00 0.00 0.00 0.00 0.00 0.00 0.00 0.00 0.00 0.00 0.00 0.00 0.00 0.00 0.00 0.00 0.00
0.00 0.00 0.00 0.00 0.00 0.00 0.00 0.00 0.00 0.00 0.00 0.00 0.00 0.00 0.00 0.00 0.00 0.00 0.00 0.00 0.00 0.00 0.00 0.00 0.00 0.00 0.00 0.00 0.00 0.00 0.00 0.00 0.00 0.00 0.00 0.00 0.00 0.00 0.00 0.00 0.00 0.00 0.00 0.00 0.00 0.00 0.00 0.00 0.00 0.00 0.00 0.00 0.00 0.00 0.00 0.00 0.00 0.00 0.00 0.00 0.00 0.00 0.00 0.00 0.00 0.00 0.00 0.00 0.00
0.00 0.00 0.00 0.00 0.00 0.00 0.00 0.00 0.00 0.00 0.00 0.00 0.00 0.00 0.00 0.00 0.00 0.00 0.00 0.00 0.00 0.00 0.00 0.00 0.00 0.00 0.00 0.00 0.00 0.00 0.00 0.00 0.00 0.00 0.00 0.00 0.00 0.00 0.00 0.00 0.00 0.00 0.00 0.00 0.00 0.00 0.00 0.00 0.00 0.00 0.00 0.00 0.00 0.00 0.00 0.00 0.00 0.00 0.00 0.00 0.00 0.00 0.00 0.00 0.00 0.00 0.00 0.00 0.00
0.00 0.00 0.00 0.00 0.00 0.00 0.00 0.00 0.00 0.00 0.00 0.00 0.00 0.00 0.00 0.00 0.00 0.00 0.00 0.00 0.00 0.00 0.00 0.00 0.00 0.00 0.00 0.00 0.00 0.00 0.00 0.00 0.00 0.00 0.00 0.00 0.00 0.00 0.00 0.00 0.00 0.00 0.00 0.00 0.00 0.00 0.00 0.00 0.00 0.00 0.00 0.00 0.00 0.00 0.00 0.00 0.00 0.00 0.00 0.00 0.00 0.00 0.00 0.00 0.00 0.00 0.00 0.00 0.00
0.00 0.00 0.00 0.00 0.00 0.00 0.00 0.00 0.00 0.00 0.00 0.00 0.00 0.00 0.00 0.00 0.00 0.00 0.00 0.00 0.00 0.00 0.00 0.00 0.00 0.00 0.00 0.00 0.00 0.00 0.00 0.00 0.00 0.00 0.00 0.00 0.00 0.00 0.00 0.00 0.00 0.00 0.00 0.00 0.00 0.00 0.00 0.00 0.00 0.00 0.00 0.00 0.00 0.00 0.00 0.00 0.00 0.00 0.00 0.00 0.00 0.00 0.00 0.00 0.00 0.00 0.00 0.00 0.00
0.00 0.00 0.00 0.00 0.00 0.00 0.00 0.00 0.00 0.00 0.00 0.00 0.00 0.00 0.00 0.00 0.00 0.00 0.00 0.00 0.00 0.00 0.00 0.00 0.00 0.00 0.00 0.00 0.00 0.00 0.00 0.00 0.00 0.00 0.00 0.00 0.00 0.00 0.00 0.00 0.00 0.00 0.00 0.00 0.00 0.00 0.00 0.00 0.00 0.00 0.00 0.00 0.00 0.00 0.00 0.00 0.00 0.00 0.00 0.00 0.00 0.00 0.00 0.00 0.00 0.00 0.00 0.00 0.00
0.00 0.00 0.00 0.00 0.00 0.00 0.00 0.00 0.00 0.00 0.00 0.00 0.00 0.00 0.00 0.00 0.00 0.00 0.00 0.00 0.00 0.00 0.00 0.00 0.00 0.00 0.00 0.00 0.00 0.00 0.00 0.00 0.00 0.00 0.00 0.00 0.00 0.00 0.00 0.00 0.00 0.00 0.00 0.00 0.00 0.00 0.00 0.00 0.00 0.00 0.00 0.00 0.00 0.00 0.00 0.00 0.00 0.00 0.00 0.00 0.00 0.00 0.00 0.00 0.00 0.00 0.00 0.00 0.00
0.00 0.00 0.00 0.00 0.00 0.00 0.00 0.00 0.00 0.00 0.00 0.00 0.00 0.00 0.00 0.00 0.00 0.00 0.00 0.00 0.00 0.00 0.00 0.00 0.00 0.00 0.00 0.00 0.00 0.00 0.00 0.00 0.00 0.00 0.00 0.00 0.00 0.00 0.00 0.00 0.00 0.00 0.00 0.00 0.00 0.00 0.00 0.00 0.00 0.00 0.00 0.00 0.00 0.00 0.00 0.00 0.00 0.00 0.00 0.00 0.00 0.00 0.00 0.00 0.00 0.00 0.00 0.00 0.00
0.00 0.00 0.00 0.00 0.00 0.00 0.00 0.00 0.00 0.00 0.00 0.00 0.00 0.00 0.00 0.00 0.00 0.00 0.00 0.00 0.00 0.00 0.00 0.00 0.00 0.00 0.00 0.00 0.00 0.00 0.00 0.00 0.00 0.00 0.00 0.00 0.00 0.00 0.00 0.00 0.00 0.00 0.00 0.00 0.00 0.00 0.00 0.00 0.00 0.00 0.00 0.00 0.00 0.00 0.00 0.00 0.00 0.00 0.00 0.00 0.00 0.00 0.00 0.00 0.00 0.00 0.00 0.00 0.00
0.00 0.00 0.00 0.00 0.00 0.00 0.00 0.00 0.00 0.00 0.00 0.00 0.00 0.00 0.00 0.00 0.00 0.00 0.00 0.00 0.00 0.00 0.00 0.00 0.00 0.00 0.00 0.00 0.00 0.00 0.00 0.00 0.00 0.00 0.00 0.00 0.00 0.00 0.00 0.00 0.00 0.00 0.00 0.00 0.00 0.00 0.00 0.00 0.00 0.00 0.00 0.00 0.00 0.00 0.00 0.00 0.00 0.00 0.00 0.00 0.00 0.00 0.00 0.00 0.00 0.00 0.00 0.00 0.00
0.00 0.00 0.00 0.00 0.00 0.00 0.00 0.00 0.00 0.00 0.00 0.00 0.00 0.00 0.00 0.00 0.00 0.00 0.00 0.00 0.00 0.00 0.00 0.00 0.00 0.00 0.00 0.00 0.00 0.00 0.00 0.00 0.00 0.00 0.00 0.00 0.00 0.00 0.00 0.00 0.00 0.00 0.00 0.00 0.00 0.00 0.00 0.00 0.00 0.00 0.00 0.00 0.00 0.00 0.00 0.00 0.00 0.00 0.00 0.00 0.00 0.01 0.01 0.00 0.00 0.00 0.00 0.00 0.00
MSLP
1026.26 1026.22 1026.18 1026.14 1026.10 1026.02 1025.94 1025.86 1025.82 1025.70 1025.62 1025.50 1025.38 1025.26 1025.14 1025.06 1024.94 1024.82 1024.70 1024.62 1024.54 1024.38 1024.22 1024.10 1023.98 1023.94 1023.94 1023.86 1023.82 1023.66 1023.50 1023.38 1023.30 1023.26 1023.22 1023.18 1023.10 1023.10 1023.02 1022.98 1022.94 1022.90 1022.90 1022.90 1022.82 1022.82 1022.78 1022.74 1022.78 1022.78 1022.78 1022.74 1022.74 1022.78 1022.90 1023.06 1023.14 1023.22 1023.14 1023.06 1022.94 1022.94 1022.94 1022.94 1022.94 1022.98 1023.02 1023.06 1022.98
1026.38 1026.34 1026.30 1026.22 1026.14 1026.06 1025.94 1025.86 1025.78 1025.66 1025.58 1025.50 1025.38 1025.26 1025.14 1025.10 1024.98 1024.86 1024.74 1024.66 1024.54 1024.42 1024.26 1024.10 1024.06 1024.02 1023.98 1023.94 1023.90 1023.78 1023.66 1023.50 1023.46 1023.38 1023.34 1023.30 1023.22 1023.18 1023.14 1023.10 1023.06 1023.02 1023.02 1023.02 1022.98 1022.94 1022.94 1022.94 1022.98 1023.02 1023.02 1022.94 1022.94 1022.94 1022.98 1023.10 1023.18 1023.22 1023.26 1023.26 1023.22 1023.14 1023.14 1023.18 1023.14 1023.10 1023.06 1022.98 1022.86
1026.42 1026.38 1026.30 1026.22 1026.14 1026.06 1025.94 1025.86 1025.78 1025.66 1025.58 1025.46 1025.34 1025.26 1025.18 1025.10 1025.02 1024.94 1024.82 1024.66 1024.58 1024.46 1024.34 1024.22 1024.10 1024.10 1024.06 1023.98 1023.94 1023.82 1023.74 1023.62 1023.50 1023.46 1023.42 1023.38 1023.30 1023.22 1023.22 1023.18 1023.14 1023.14 1023.10 1023.10 1023.10 1023.10 1023.10 1023.10 1023.14 1023.22 1023.22 1023.22 1023.14 1023.14 1023.18 1023.22 1023.26 1023.34 1023.38 1023.38 1023.30 1023.26 1023.22 1023.22 1023.18 1023.10 1023.02 1022.94 1022.82
1026.50 1026.42 1026.38 1026.26 1026.22 1026.18 1026.10 1025.94 1025.82 1025.74 1025.62 1025.46 1025.38 1025.26 1025.22 1025.10 1025.06 1024.94 1024.82 1024.70 1024.62 1024.50 1024.38 1024.30 1024.22 1024.14 1024.10 1024.10 1024.02 1023.90 1023.78 1023.66 1023.58 1023.50 1023.46 1023.38 1023.38 1023.30 1023.26 1023.22 1023.22 1023.22 1023.22 1023.22 1023.22 1023.22 1023.22 1023.22 1023.26 1023.34 1023.34 1023.30 1023.26 1023.22 1023.26 1023.26 1023.26 1023.30 1023.30 1023.22 1023.22 1023.14 1023.10 1023.02 1022.94 1022.90 1022.82 1022.78 1022.66
1026.54 1026.50 1026.42 1026.34 1026.26 1026.22 1026.10 1025.98 1025.90 1025.78 1025.66 1025.50 1025.38 1025.34 1025.26 1025.14 1025.10 1024.94 1024.82 1024.74 1024.62 1024.54 1024.46 1024.38 1024.26 1024.18 1024.14 1024.14 1024.06 1023.94 1023.82 1023.74 1023.62 1023.54 1023.50 1023.42 1023.42 1023.38 1023.30 1023.30 1023.34 1023.30 1023.26 1023.26 1023.26 1023.26 1023.26 1023.30 1023.30 1023.30 1023.30 1023.26 1023.22 1023.18 1023.14 1023.10 1023.06 1023.02 1023.02 1022.98 1022.94 1022.90 1022.82 1022.82 1022.78 1022.74 1022.70 1022.66 1022.58
1026.62 1026.50 1026.42 1026.38 1026.26 1026.18 1026.06 1025.98 1025.90 1025.82 1025.66 1025.58 1025.50 1025.46 1025.38 1025.26 1025.14 1025.06 1024.94 1024.82 1024.74 1024.62 1024.46 1024.38 1024.26 1024.22 1024.14 1024.18 1024.10 1024.02 1023.86 1023.78 1023.66 1023.62 1023.54 1023.50 1023.46 1023.38 1023.38 1023.38 1023.34 1023.30 1023.26 1023.26 1023.26 1023.26 1023.22 1023.22 1023.22 1023.22 1023.18 1023.18 1023.10 1023.10 1023.02 1022.94 1022.90 1022.86 1022.86 1022.86 1022.82 1022.82 1022.78 1022.78 1022.70 1022.66 1022.66 1022.62 1022.58
1026.66 1026.58 1026.50 1026.38 1026.30 1026.22 1026.10 1026.02 1025.94 1025.82 1025.70 1025.66 1025.62 1025.54 1025.50 1025.38 1025.22 1025.14 1025.02 1024.94 1024.74 1024.58 1024.46 1024.38 1024.30 1024.22 1024.14 1024.18 1024.14 1024.06 1023.90 1023.82 1023.78 1023.70 1023.66 1023.62 1023.54 1023.50 1023.42 1023.38 1023.30 1023.26 1023.22 1023.26 1023.26 1023.26 1023.22 1023.22 1023.22 1023.22 1023.18 1023.18 1023.10 1023.06 1023.02 1023.02 1023.02 1023.02 1022.98 1022.94 1022.94 1022.90 1022.86 1022.82 1022.66 1022.62 1022.58 1022.54 1022.50
1026.66 1026.58 1026.54 1026.42 1026.34 1026.22 1026.18 1026.10 1025.94 1025.86 1025.78 1025.70 1025.66 1025.62 1025.54 1025.42 1025.26 1025.14 1025.02 1024.90 1024.78 1024.66 1024.54 1024.42 1024.30 1024.22 1024.18 1024.18 1024.14 1024.10 1023.98 1023.94 1023.90 1023.86 1023.82 1023.74 1023.62 1023.50 1023.42 1023.34 1023.30 1023.26 1023.26 1023.26 1023.26 1023.26 1023.22 1023.22 1023.22 1023.22 1023.22 1023.18 1023.10 1023.10 1023.18 1023.22 1023.22 1023.22 1023.18 1023.10 1022.98 1022.90 1022.86 1022.82 1022.74 1022.66 1022.54 1022.50 1022.42
1026.66 1026.58 1026.54 1026.46 1026.38 1026.26 1026.22 1026.14 1026.02 1025.94 1025.86 1025.82 1025.74 1025.66 1025.54 1025.42 1025.30 1025.18 1025.02 1024.94 1024.82 1024.66 1024.54 1024.42 1024.26 1024.22 1024.14 1024.14 1024.10 1024.10 1024.10 1024.10 1024.06 1024.06 1023.98 1023.86 1023.74 1023.58 1023.46 1023.38 1023.34 1023.30 1023.26 1023.26 1023.22 1023.26 1023.26 1023.26 1023.26 1023.22 1023.22 1023.22 1023.18 1023.22 1023.22 1023.30 1023.34 1023.26 1023.18 1023.06 1022.98 1022.94 1022.86 1022.82 1022.82 1022.66 1022.54 1022.42 1022.38
1026.78 1026.66 1026.58 1026.50 1026.42 1026.34 1026.22 1026.14 1026.02 1025.94 1025.90 1025.86 1025.78 1025.66 1025.50 1025.38 1025.30 1025.22 1025.10 1024.98 1024.82 1024.66 1024.54 1024.38 1024.26 1024.18 1024.10 1024.10 1024.14 1024.18 1024.18 1024.22 1024.18 1024.14 1024.10 1023.98 1023.86 1023.66 1023.54 1023.46 1023.42 1023.38 1023.38 1023.34 1023.26 1023.26 1023.30 1023.30 1023.30 1023.26 1023.22 1023.22 1023.22 1023.26 1023.22 1023.22 1023.26 1023.22 1023.10 1023.02 1022.98 1022.94 1022.86 1022.82 1022.78 1022.66 1022.54 1022.46 1022.38
1026.82 1026.74 1026.66 1026.58 1026.50 1026.38 1026.26 1026.18 1026.06 1025.94 1025.90 1025.86 1025.78 1025.66 1025.54 1025.42 1025.34 1025.22 1025.14 1025.02 1024.86 1024.70 1024.58 1024.42 1024.30 1024.22 1024.14 1024.14 1024.18 1024.22 1024.22 1024.22 1024.18 1024.14 1024.10 1023.94 1023.86 1023.82 1023.66 1023.62 1023.54 1023.50 1023.46 1023.46 1023.38 1023.38 1023.38 1023.38 1023.34 1023.30 1023.22 1023.22 1023.22 1023.22 1023.22 1023.22 1023.22 1023.22 1023.10 1023.06 1023.02 1022.94 1022.90 1022.78 1022.74 1022.66 1022.62 1022.54 1022.42
1026.90 1026.82 1026.70 1026.66 1026.54 1026.38 1026.30 1026.22 1026.10 1026.02 1025.94 1025.90 1025.82 1025.70 1025.62 1025.50 1025.38 1025.30 1025.22 1025.06 1024.94 1024.82 1024.66 1024.54 1024.38 1024.30 1024.22 1024.22 1024.18 1024.18 1024.18 1024.10 1024.10 1024.06 1023.98 1023.94 1023.90 1023.82 1023.78 1023.74 1023.66 1023.62 1023.58 1023.58 1023.54 1023.54 1023.50 1023.46 1023.46 1023.38 1023.30 1023.22 1023.22 1023.18 1023.18 1023.18 1023.22 1023.18 1023.10 1023.06 1023.02 1022.94 1022.86 1022.74 1022.70 1022.66 1022.66 1022.62 1022.54
1026.94 1026.86 1026.74 1026.66 1026.58 1026.50 1026.38 1026.26 1026.18 1026.10 1026.02 1025.94 1025.86 1025.78 1025.66 1025.54 1025.46 1025.38 1025.26 1025.14 1025.06 1024.94 1024.78 1024.66 1024.54 1024.38 1024.34 1024.22 1024.18 1024.14 1024.10 1024.02 1023.94 1023.94 1023.94 1023.90 1023.82 1023.78 1023.74 1023.70 1023.70 1023.66 1023.66 1023.66 1023.62 1023.58 1023.58 1023.54 1023.50 1023.42 1023.38 1023.26 1023.22 1023.18 1023.18 1023.22 1023.22 1023.18 1023.14 1023.10 1023.02 1022.94 1022.86 1022.74 1022.70 1022.70 1022.66 1022.66 1022.62
1026.94 1026.90 1026.82 1026.70 1026.62 1026.54 1026.46 1026.38 1026.26 1026.18 1026.14 1026.06 1025.94 1025.86 1025.78 1025.66 1025.54 1025.46 1025.38 1025.26 1025.14 1025.02 1024.90 1024.82 1024.66 1024.54 1024.38 1024.30 1024.22 1024.18 1024.10 1024.02 1023.94 1023.90 1023.86 1023.82 1023.78 1023.74 1023.70 1023.66 1023.66 1023.62 1023.62 1023.58 1023.50 1023.50 1023.50 1023.50 1023.42 1023.42 1023.38 1023.34 1023.26 1023.22 1023.22 1023.22 1023.22 1023.22 1023.14 1023.10 1023.06 1022.98 1022.86 1022.78 1022.78 1022.74 1022.70 1022.66 1022.62
1026.94 1026.90 1026.82 1026.74 1026.66 1026.62 1026.54 1026.50 1026.38 1026.26 1026.22 1026.14 1026.06 1025.94 1025.86 1025.78 1025.66 1025.54 1025.46 1025.34 1025.22 1025.10 1024.98 1024.94 1024.78 1024.66 1024.50 1024.38 1024.30 1024.22 1024.14 1024.06 1023.98 1023.94 1023.90 1023.82 1023.74 1023.70 1023.66 1023.66 1023.62 1023.58 1023.50 1023.50 1023.42 1023.38 1023.38 1023.38 1023.38 1023.38 1023.38 1023.38 1023.30 1023.22 1023.22 1023.22 1023.22 1023.18 1023.14 1023.10 1023.06 1022.94 1022.90 1022.82 1022.82 1022.78 1022.70 1022.66 1022.66
1026.98 1026.94 1026.86 1026.82 1026.78 1026.66 1026.62 1026.58 1026.46 1026.38 1026.30 1026.22 1026.14 1026.02 1025.94 1025.86 1025.74 1025.66 1025.50 1025.42 1025.26 1025.14 1025.02 1024.94 1024.82 1024.70 1024.54 1024.42 1024.34 1024.22 1024.18 1024.14 1024.06 1023.98 1023.94 1023.86 1023.82 1023.74 1023.66 1023.66 1023.62 1023.54 1023.50 1023.42 1023.38 1023.34 1023.30 1023.34 1023.38 1023.38 1023.38 1023.34 1023.30 1023.22 1023.22 1023.18 1023.14 1023.10 1023.06 1023.02 1022.94 1022.94 1022.86 1022.82 1022.82 1022.74 1022.66 1022.62 1022.62
1027.06 1026.98 1026.94 1026.86 1026.82 1026.74 1026.66 1026.58 1026.54 1026.46 1026.42 1026.34 1026.22 1026.10 1026.02 1025.94 1025.82 1025.70 1025.62 1025.50 1025.38 1025.22 1025.10 1024.94 1024.82 1024.74 1024.62 1024.50 1024.38 1024.26 1024.22 1024.18 1024.06 1024.02 1023.98 1023.94 1023.86 1023.82 1023.74 1023.66 1023.62 1023.54 1023.50 1023.42 1023.38 1023.34 1023.26 1023.26 1023.30 1023.34 1023.30 1023.30 1023.26 1023.22 1023.18 1023.14 1023.10 1023.02 1022.98 1022.94 1022.90 1022.82 1022.78 1022.74 1022.70 1022.66 1022.62 1022.58 1022.54
1027.10 1027.06 1026.98 1026.94 1026.86 1026.82 1026.74 1026.66 1026.58 1026.54 1026.50 1026.38 1026.26 1026.18 1026.10 1025.98 1025.94 1025.82 1025.70 1025.58 1025.50 1025.34 1025.18 1024.94 1024.82 1024.74 1024.66 1024.54 1024.42 1024.30 1024.22 1024.18 1024.06 1024.02 1023.98 1023.94 1023.86 1023.82 1023.74 1023.66 1023.58 1023.54 1023.50 1023.46 1023.38 1023.34 1023.22 1023.22 1023.22 1023.22 1023.22 1023.22 1023.22 1023.18 1023.10 1023.10 1022.98 1022.94 1022.90 1022.86 1022.82 1022.74 1022.66 1022.62 1022.58 1022.54 1022.54 1022.50 1022.38
1027.14 1027.10 1027.02 1026.94 1026.94 1026.86 1026.82 1026.74 1026.66 1026.62 1026.54 1026.42 1026.30 1026.22 1026.10 1026.02 1025.94 1025.86 1025.74 1025.62 1025.50 1025.38 1025.18 1024.98 1024.82 1024.74 1024.66 1024.54 1024.42 1024.30 1024.22 1024.18 1024.06 1023.98 1023.94 1023.90 1023.82 1023.78 1023.74 1023.66 1023.62 1023.58 1023.54 1023.50 1023.42 1023.34 1023.22 1023.18 1023.18 1023.22 1023.22 1023.18 1023.14 1023.10 1023.06 1022.98 1022.94 1022.90 1022.86 1022.82 1022.78 1022.66 1022.58 1022.54 1022.46 1022.42 1022.38 1022.38 1022.30
1027.22 1027.14 1027.10 1026.98 1026.94 1026.86 1026.82 1026.78 1026.74 1026.66 1026.58 1026.46 1026.34 1026.22 1026.14 1026.02 1025.94 1025.86 1025.74 1025.58 1025.42 1025.30 1025.14 1025.02 1024.90 1024.78 1024.66 1024.54 1024.42 1024.30 1024.22 1024.14 1024.10 1023.98 1023.94 1023.86 1023.86 1023.82 1023.82 1023.74 1023.70 1023.66 1023.62 1023.54 1023.46 1023.34 1023.26 1023.22 1023.22 1023.22 1023.22 1023.22 1023.14 1023.10 1023.06 1023.02 1022.98 1022.94 1022.90 1022.82 1022.78 1022.66 1022.54 1022.50 1022.38 1022.38 1022.34 1022.26 1022.22
1027.22 1027.18 1027.10 1027.02 1026.94 1026.90 1026.82 1026.82 1026.74 1026.66 1026.54 1026.46 1026.34 1026.22 1026.14 1026.02 1025.94 1025.82 1025.70 1025.50 1025.38 1025.22 1025.10 1025.02 1024.90 1024.82 1024.70 1024.58 1024.46 1024.38 1024.26 1024.22 1024.10 1024.06 1023.98 1023.94 1023.94 1023.94 1023.90 1023.82 1023.78 1023.70 1023.66 1023.58 1023.50 1023.38 1023.34 1023.34 1023.34 1023.34 1023.34 1023.30 1023.22 1023.22 1023.22 1023.18 1023.10 1023.06 1022.98 1022.90 1022.82 1022.74 1022.62 1022.54 1022.46 1022.38 1022.30 1022.22 1022.14
1027.22 1027.14 1027.10 1026.98 1026.94 1026.86 1026.82 1026.74 1026.66 1026.58 1026.50 1026.42 1026.30 1026.22 1026.10 1025.98 1025.86 1025.74 1025.62 1025.46 1025.34 1025.22 1025.10 1024.98 1024.90 1024.82 1024.74 1024.66 1024.54 1024.42 1024.38 1024.26 1024.22 1024.14 1024.10 1024.10 1024.06 1024.02 1023.94 1023.90 1023.82 1023.74 1023.66 1023.66 1023.58 1023.50 1023.46 1023.42 1023.42 1023.42 1023.46 1023.42 1023.38 1023.34 1023.34 1023.30 1023.26 1023.18 1023.10 1023.02 1022.94 1022.82 1022.74 1022.66 1022.62 1022.54 1022.46 1022.38 1022.30
1027.22 1027.10 1027.06 1026.94 1026.86 1026.82 1026.78 1026.70 1026.62 1026.54 1026.50 1026.38 1026.26 1026.22 1026.10 1025.98 1025.86 1025.70 1025.54 1025.42 1025.34 1025.22 1025.10 1024.98 1024.86 1024.78 1024.70 1024.66 1024.58 1024.54 1024.50 1024.38 1024.34 1024.26 1024.22 1024.22 1024.18 1024.10 1023.98 1023.94 1023.86 1023.82 1023.82 1023.78 1023.70 1023.62 1023.54 1023.50 1023.50 1023.50 1023.50 1023.50 1023.50 1023.46 1023.42 1023.38 1023.38 1023.30 1023.22 1023.10 1022.98 1022.90 1022.78 1022.74 1022.66 1022.66 1022.62 1022.54 1022.50
1027.14 1027.10 1027.02 1026.94 1026.82 1026.82 1026.74 1026.66 1026.62 1026.54 1026.50 1026.38 1026.30 1026.22 1026.14 1026.02 1025.90 1025.74 1025.62 1025.46 1025.34 1025.22 1025.14 1024.98 1024.86 1024.82 1024.70 1024.66 1024.62 1024.62 1024.58 1024.54 1024.50 1024.42 1024.34 1024.26 1024.22 1024.14 1024.06 1023.98 1023.94 1023.94 1023.90 1023.82 1023.70 1023.66 1023.62 1023.58 1023.58 1023.58 1023.58 1023.58 1023.58 1023.50 1023.50 1023.42 1023.42 1023.38 1023.26 1023.18 1023.06 1022.94 1022.82 1022.70 1022.66 1022.54 1022.50 1022.42 1022.34
1027.10 1027.10 1027.02 1026.90 1026.82 1026.82 1026.78 1026.70 1026.66 1026.62 1026.54 1026.42 1026.34 1026.26 1026.14 1026.02 1025.94 1025.78 1025.66 1025.50 1025.38 1025.30 1025.18 1025.06 1024.94 1024.82 1024.78 1024.70 1024.70 1024.66 1024.66 1024.62 1024.62 1024.54 1024.46 1024.38 1024.26 1024.18 1024.14 1024.10 1024.10 1024.02 1023.94 1023.82 1023.66 1023.58 1023.58 1023.62 1023.62 1023.66 1023.66 1023.62 1023.62 1023.54 1023.50 1023.46 1023.42 1023.38 1023.34 1023.22 1023.14 1023.02 1022.86 1022.70 1022.54 1022.42 1022.34 1022.22 1022.14
1027.10 1027.06 1027.02 1026.94 1026.86 1026.82 1026.82 1026.74 1026.70 1026.66 1026.54 1026.46 1026.38 1026.26 1026.14 1026.06 1025.94 1025.82 1025.70 1025.58 1025.46 1025.30 1025.18 1025.10 1024.94 1024.90 1024.86 1024.82 1024.78 1024.74 1024.70 1024.66 1024.62 1024.58 1024.54 1024.46 1024.38 1024.26 1024.22 1024.18 1024.14 1024.10 1023.94 1023.82 1023.74 1023.66 1023.66 1023.58 1023.58 1023.66 1023.66 1023.66 1023.66 1023.62 1023.50 1023.46 1023.38 1023.38 1023.34 1023.26 1023.18 1023.10 1022.98 1022.82 1022.62 1022.42 1022.26 1022.18 1022.06
1027.10 1027.06 1026.98 1026.94 1026.86 1026.82 1026.82 1026.78 1026.70 1026.66 1026.58 1026.46 1026.38 1026.30 1026.18 1026.06 1025.94 1025.86 1025.74 1025.62 1025.50 1025.34 1025.22 1025.10 1025.02 1024.94 1024.90 1024.82 1024.82 1024.82 1024.78 1024.70 1024.66 1024.62 1024.58 1024.54 1024.46 1024.38 1024.34 1024.22 1024.18 1024.10 1023.98 1023.86 1023.82 1023.74 1023.70 1023.66 1023.62 1023.62 1023.66 1023.74 1023.74 1023.70 1023.66 1023.54 1023.46 1023.38 1023.30 1023.26 1023.18 1023.10 1023.02 1022.90 1022.74 1022.54 1022.30 1022.14 1022.06
1027.10 1027.06 1026.98 1026.94 1026.94 1026.86 1026.82 1026.78 1026.70 1026.66 1026.58 1026.50 1026.38 1026.30 1026.18 1026.06 1025.94 1025.90 1025.78 1025.66 1025.50 1025.38 1025.22 1025.10 1025.02 1024.94 1024.94 1024.90 1024.86 1024.82 1024.78 1024.74 1024.70 1024.66 1024.62 1024.54 1024.50 1024.42 1024.38 1024.34 1024.26 1024.14 1023.98 1023.90 1023.82 1023.78 1023.74 1023.70 1023.66 1023.66 1023.66 1023.70 1023.70 1023.70 1023.66 1023.58 1023.50 1023.42 1023.34 1023.26 1023.18 1023.10 1023.02 1022.90 1022.70 1022.54 1022.38 1022.22 1022.10
1027.06 1027.02 1027.02 1027.02 1026.94 1026.86 1026.82 1026.82 1026.70 1026.66 1026.58 1026.54 1026.38 1026.22 1026.18 1026.10 1025.98 1025.90 1025.78 1025.66 1025.54 1025.42 1025.34 1025.22 1025.10 1025.02 1025.02 1024.98 1024.94 1024.82 1024.78 1024.78 1024.74 1024.70 1024.66 1024.58 1024.54 1024.54 1024.50 1024.42 1024.34 1024.18 1024.02 1023.90 1023.86 1023.82 1023.78 1023.74 1023.70 1023.66 1023.62 1023.66 1023.70 1023.70 1023.66 1023.66 1023.54 1023.50 1023.38 1023.26 1023.18 1023.06 1022.94 1022.82 1022.66 1022.54 1022.38 1022.26 1022.10
1027.06 1027.06 1027.02 1027.02 1026.94 1026.86 1026.82 1026.82 1026.70 1026.66 1026.54 1026.42 1026.34 1026.22 1026.18 1026.10 1025.98 1025.86 1025.82 1025.74 1025.62 1025.50 1025.38 1025.22 1025.10 1025.10 1025.10 1025.10 1024.98 1024.86 1024.82 1024.82 1024.78 1024.78 1024.74 1024.70 1024.66 1024.62 1024.54 1024.46 1024.38 1024.22 1024.10 1023.94 1023.90 1023.86 1023.82 1023.78 1023.70 1023.66 1023.62 1023.62 1023.66 1023.70 1023.66 1023.66 1023.58 1023.50 1023.38 1023.26 1023.14 1023.06 1022.94 1022.78 1022.66 1022.54 1022.38 1022.22 1022.10
1027.02 1027.02 1027.02 1027.02 1026.94 1026.90 1026.82 1026.74 1026.66 1026.58 1026.50 1026.42 1026.30 1026.22 1026.18 1026.10 1026.02 1025.94 1025.82 1025.70 1025.62 1025.46 1025.30 1025.18 1025.14 1025.14 1025.10 1025.06 1025.02 1024.94 1024.86 1024.86 1024.86 1024.86 1024.90 1024.86 1024.82 1024.70 1024.62 1024.54 1024.42 1024.26 1024.10 1023.94 1023.90 1023.86 1023.82 1023.82 1023.70 1023.66 1023.62 1023.62 1023.66 1023.70 1023.66 1023.66 1023.58 1023.50 1023.38 1023.30 1023.14 1022.98 1022.86 1022.74 1022.62 1022.46 1022.34 1022.14 1022.02
1027.02 1026.98 1027.02 1027.02 1026.94 1026.90 1026.78 1026.66 1026.62 1026.54 1026.46 1026.38 1026.34 1026.22 1026.18 1026.10 1026.06 1025.94 1025.82 1025.66 1025.54 1025.42 1025.34 1025.22 1025.22 1025.18 1025.10 1025.10 1025.10 1025.06 1024.98 1024.94 1024.98 1024.98 1024.98 1024.94 1024.90 1024.82 1024.70 1024.58 1024.46 1024.34 1024.14 1023.94 1023.94 1023.90 1023.82 1023.82 1023.74 1023.66 1023.62 1023.62 1023.66 1023.70 1023.74 1023.70 1023.66 1023.54 1023.46 1023.34 1023.18 1023.02 1022.86 1022.70 1022.54 1022.38 1022.26 1022.10 1021.94
1026.98 1026.98 1026.98 1026.98 1026.94 1026.86 1026.74 1026.66 1026.58 1026.54 1026.46 1026.38 1026.30 1026.22 1026.18 1026.10 1025.98 1025.86 1025.74 1025.62 1025.50 1025.46 1025.38 1025.34 1025.26 1025.22 1025.22 1025.22 1025.18 1025.14 1025.10 1025.10 1025.10 1025.06 1025.06 1025.02 1024.94 1024.86 1024.74 1024.62 1024.50 1024.34 1024.14 1023.98 1023.94 1023.90 1023.82 1023.82 1023.74 1023.66 1023.66 1023.62 1023.70 1023.78 1023.78 1023.74 1023.66 1023.58 1023.46 1023.30 1023.18 1023.02 1022.86 1022.70 1022.54 1022.38 1022.22 1022.06 1021.94
1026.98 1026.94 1026.98 1026.94 1026.90 1026.82 1026.70 1026.62 1026.58 1026.54 1026.46 1026.38 1026.26 1026.22 1026.14 1026.10 1025.98 1025.86 1025.74 1025.66 1025.50 1025.46 1025.42 1025.38 1025.34 1025.30 1025.30 1025.30 1025.26 1025.22 1025.22 1025.18 1025.14 1025.14 1025.10 1025.06 1025.02 1024.94 1024.82 1024.66 1024.54 1024.38 1024.22 1024.02 1023.94 1023.90 1023.82 1023.82 1023.70 1023.66 1023.62 1023.66 1023.74 1023.82 1023.82 1023.74 1023.66 1023.54 1023.42 1023.26 1023.10 1022.94 1022.78 1022.66 1022.50 1022.34 1022.14 1021.98 1021.86
1026.94 1026.94 1026.94 1026.94 1026.86 1026.82 1026.70 1026.66 1026.58 1026.54 1026.46 1026.38 1026.30 1026.22 1026.14 1026.06 1025.98 1025.90 1025.74 1025.66 1025.54 1025.46 1025.38 1025.38 1025.38 1025.34 1025.34 1025.34 1025.34 1025.30 1025.26 1025.22 1025.22 1025.18 1025.14 1025.14 1025.10 1025.02 1024.90 1024.82 1024.66 1024.54 1024.34 1024.18 1024.02 1023.94 1023.86 1023.82 1023.70 1023.62 1023.62 1023.70 1023.82 1023.82 1023.82 1023.74 1023.66 1023.50 1023.38 1023.22 1023.06 1022.86 1022.66 1022.54 1022.38 1022.22 1022.06 1021.94 1021.82
1026.90 1026.94 1026.94 1026.94 1026.86 1026.78 1026.70 1026.66 1026.58 1026.54 1026.46 1026.42 1026.34 1026.22 1026.14 1026.06 1025.94 1025.82 1025.74 1025.62 1025.58 1025.50 1025.46 1025.42 1025.38 1025.38 1025.38 1025.30 1025.30 1025.34 1025.34 1025.30 1025.22 1025.22 1025.22 1025.22 1025.22 1025.14 1025.06 1024.94 1024.82 1024.66 1024.50 1024.26 1024.10 1023.98 1023.90 1023.82 1023.78 1023.66 1023.62 1023.66 1023.78 1023.82 1023.74 1023.70 1023.58 1023.46 1023.34 1023.18 1022.98 1022.82 1022.62 1022.46 1022.26 1022.10 1021.94 1021.82 1021.70
1026.82 1026.90 1026.90 1026.90 1026.82 1026.78 1026.70 1026.62 1026.58 1026.54 1026.50 1026.42 1026.34 1026.22 1026.14 1026.06 1025.94 1025.82 1025.70 1025.66 1025.66 1025.58 1025.50 1025.46 1025.42 1025.38 1025.38 1025.34 1025.30 1025.30 1025.30 1025.34 1025.34 1025.34 1025.34 1025.34 1025.34 1025.30 1025.22 1025.10 1024.94 1024.82 1024.66 1024.38 1024.22 1024.10 1023.94 1023.86 1023.78 1023.66 1023.62 1023.66 1023.70 1023.70 1023.66 1023.62 1023.50 1023.38 1023.22 1023.10 1022.94 1022.70 1022.54 1022.34 1022.18 1022.06 1021.90 1021.74 1021.62
1026.78 1026.82 1026.82 1026.82 1026.82 1026.74 1026.66 1026.66 1026.62 1026.54 1026.50 1026.38 1026.30 1026.22 1026.10 1026.02 1025.94 1025.82 1025.70 1025.70 1025.66 1025.66 1025.58 1025.50 1025.50 1025.42 1025.38 1025.38 1025.38 1025.34 1025.34 1025.38 1025.46 1025.50 1025.50 1025.46 1025.50 1025.46 1025.38 1025.22 1025.10 1024.98 1024.82 1024.54 1024.30 1024.18 1024.06 1023.94 1023.82 1023.66 1023.58 1023.62 1023.66 1023.66 1023.58 1023.50 1023.38 1023.26 1023.14 1022.98 1022.82 1022.58 1022.38 1022.22 1022.10 1021.94 1021.82 1021.70 1021.50
1026.70 1026.78 1026.82 1026.82 1026.78 1026.70 1026.66 1026.62 1026.58 1026.54 1026.46 1026.38 1026.30 1026.18 1026.10 1026.02 1025.90 1025.82 1025.70 1025.66 1025.66 1025.66 1025.66 1025.58 1025.54 1025.50 1025.50 1025.50 1025.50 1025.50 1025.50 1025.50 1025.54 1025.58 1025.58 1025.54 1025.50 1025.46 1025.38 1025.38 1025.22 1025.10 1024.90 1024.62 1024.38 1024.22 1024.10 1023.94 1023.82 1023.66 1023.54 1023.58 1023.58 1023.54 1023.50 1023.42 1023.34 1023.22 1023.06 1022.86 1022.66 1022.42 1022.26 1022.10 1021.98 1021.86 1021.74 1021.62 1021.38
1026.66 1026.66 1026.70 1026.70 1026.70 1026.66 1026.62 1026.58 1026.54 1026.46 1026.38 1026.34 1026.26 1026.18 1026.10 1025.98 1025.90 1025.74 1025.66 1025.66 1025.66 1025.66 1025.66 1025.62 1025.62 1025.62 1025.62 1025.58 1025.62 1025.66 1025.66 1025.66 1025.62 1025.62 1025.62 1025.58 1025.50 1025.38 1025.34 1025.38 1025.30 1025.18 1024.98 1024.74 1024.50 1024.30 1024.14 1023.94 1023.82 1023.66 1023.54 1023.50 1023.50 1023.50 1023.42 1023.34 1023.22 1023.10 1022.94 1022.70 1022.50 1022.26 1022.10 1021.94 1021.86 1021.78 1021.66 1021.54 1021.34
1026.58 1026.62 1026.66 1026.62 1026.62 1026.58 1026.58 1026.54 1026.50 1026.38 1026.26 1026.22 1026.22 1026.14 1026.06 1025.94 1025.86 1025.78 1025.66 1025.66 1025.58 1025.58 1025.62 1025.66 1025.66 1025.66 1025.66 1025.66 1025.66 1025.74 1025.74 1025.70 1025.66 1025.66 1025.66 1025.62 1025.50 1025.42 1025.38 1025.38 1025.34 1025.22 1025.02 1024.82 1024.58 1024.38 1024.18 1023.98 1023.82 1023.66 1023.50 1023.42 1023.38 1023.38 1023.34 1023.26 1023.14 1022.94 1022.78 1022.54 1022.30 1022.10 1021.94 1021.82 1021.78 1021.70 1021.62 1021.46 1021.30
Thickness
5494 5493 5491 5489 5486 5485 5483 5482 5479 5478 5476 5475 5473 5471 5470 5468 5466 5464 5463 5461 5459 5456 5454 5451 5448 5446 5442 5437 5434 5431 5428 5425 5421 5418 5414 5410 5407 5403 5400 5395 5391 5387 5383 5379 5375 5370 5366 5362 5358 5354 5349 5345 5340 5336 5331 5326 5323 5322 5320 5318 5316 5315 5314 5312 5311 5311 5311 5309 5305
5490 5488 5486 5484 5482 5481 5479 5477 5476 5474 5472 5471 5469 5467 5465 5463 5461 5459 5457 5454 5452 5449 5447 5444 5441 5438 5434 5430 5426 5423 5420 5417 5413 5409 5405 5402 5399 5396 5392 5387 5383 5378 5374 5369 5365 5360 5356 5351 5347 5342 5338 5334 5330 5327 5323 5318 5315 5313 5311 5309 5307 5306 5306 5305 5305 5306 5307 5306 5303
5485 5483 5482 5480 5478 5476 5475 5474 5472 5470 5468 5467 5465 5463 5461 5458 5456 5453 5451 5448 5446 5442 5440 5437 5433 5430 5427 5423 5419 5415 5412 5409 5406 5403 5398 5394 5391 5387 5384 5379 5374 5370 5365 5360 5355 5350 5345 5340 5336 5332 5327 5324 5320 5317 5313 5310 5307 5306 5304 5302 5301 5301 5300 5301 5301 5302 5302 5302 5300
5481 5479 5477 5475 5473 5471 5470 5469 5467 5465 5464 5463 5460 5458 5455 5453 5450 5447 5444 5442 5439 5435 5432 5429 5426 5423 5420 5417 5413 5409 5406 5402 5399 5395 5391 5387 5383 5380 5375 5371 5366 5361 5355 5350 5345 5340 5335 5330 5325 5322 5318 5315 5312 5309 5306 5304 5302 5300 5299 5298 5298 5298 5298 5298 5298 5299 5299 5298 5296
5477 5474 5473 5471 5469 5467 5466 5464 5463 5461 5459 5457 5455 5452 5450 5447 5445 5442 5439 5436 5432 5429 5427 5424 5421 5418 5414 5411 5407 5404 5400 5396 5393 5389 5384 5380 5375 5371 5367 5362 5357 5351 5346 5341 5335 5330 5326 5321 5317 5313 5310 5308 5305 5303 5301 5299 5298 5296 5295 5295 5295 5295 5295 5295 5295 5296 5295 5294 5292
5472 5470 5469 5467 5465 5463 5462 5459 5458 5456 5453 5451 5449 5446 5443 5441 5438 5435 5433 5429 5426 5424 5421 5418 5416 5413 5409 5405 5401 5397 5394 5390 5386 5381 5377 5372 5368 5363 5358 5353 5348 5342 5337 5332 5327 5322 5318 5314 5311 5307 5304 5301 5299 5298 5297 5295 5294 5292 5291 5290 5291 5291 5291 5291 5291 5291 5291 5290 5288
5468 5466 5464 5463 5461 5459 5457 5455 5453 5451 5448 5446 5443 5440 5437 5435 5432 5430 5427 5424 5422 5419 5417 5413 5410 5407 5404 5399 5395 5390 5387 5382 5377 5373 5368 5364 5359 5355 5350 5345 5340 5334 5329 5324 5319 5315 5311 5307 5304 5302 5298 5296 5294 5293 5291 5290 5288 5287 5285 5285 5284 5285 5285 5286 5285 5286 5286 5286 5284
5464 5462 5460 5459 5456 5455 5452 5450 5448 5446 5444 5441 5438 5435 5432 5430 5427 5425 5422 5419 5417 5414 5411 5408 5405 5401 5397 5393 5388 5384 5379 5375 5370 5364 5359 5355 5350 5346 5342 5337 5332 5326 5322 5317 5313 5308 5304 5301 5298 5296 5293 5291 5290 5288 5286 5284 5282 5281 5280 5280 5280 5280 5280 5279 5280 5280 5281 5281 5281
5461 5459 5457 5455 5453 5451 5449 5447 5444 5442 5439 5436 5433 5430 5427 5425 5422 5420 5417 5414 5411 5408 5405 5403 5399 5395 5391 5386 5381 5376 5371 5366 5360 5355 5350 5345 5341 5338 5333 5329 5324 5319 5315 5310 5306 5303 5299 5296 5294 5291 5289 5287 5286 5283 5281 5279 5278 5277 5276 5277 5276 5276 5276 5275 5275 5276 5276 5277 5277
5457 5455 5453 5452 5449 5447 5445 5443 5440 5437 5434 5431 5428 5426 5423 5420 5417 5414 5411 5409 5406 5402 5399 5396 5393 5389 5384 5379 5374 5369 5363 5357 5352 5346 5341 5336 5332 5328 5325 5321 5317 5312 5308 5304 5300 5297 5294 5292 5289 5287 5285 5283 5282 5280 5278 5276 5275 5274 5274 5274 5273 5273 5272 5273 5272 5272 5272 5273 5272
5453 5451 5449 5447 5445 5443 5441 5439 5436 5433 5430 5427 5424 5421 5418 5415 5412 5409 5406 5403 5400 5396 5393 5389 5386 5382 5378 5372 5367 5361 5355 5350 5344 5338 5333 5329 5324 5319 5316 5313 5309 5305 5302 5298 5295 5292 5290 5288 5285 5284 5282 5280 5279 5277 5276 5274 5273 5272 5272 5271 5270 5270 5270 5270 5269 5269 5268 5268 5268
5449 5447 5445 5443 5441 5439 5437 5434 5432 5429 5426 5422 5419 5416 5413 5410 5407 5404 5400 5397 5393 5390 5386 5383 5379 5375 5371 5365 5359 5354 5348 5343 5337 5332 5326 5321 5317 5312 5309 5305 5302 5299 5295 5292 5290 5287 5285 5283 5281 5280 5278 5278 5276 5274 5273 5272 5270 5270 5269 5268 5268 5267 5267 5267 5266 5265 5265 5264 5264
5445 5443 5441 5439 5437 5435 5432 5430 5427 5424 5421 5418 5414 5411 5408 5404 5401 5398 5394 5391 5387 5383 5379 5375 5371 5368 5363 5358 5352 5347 5341 5336 5331 5326 5320 5316 5311 5307 5303 5299 5296 5294 5291 5288 5286 5283 5281 5280 5278 5277 5276 5274 5273 5272 5271 5269 5268 5267 5266 5266 5265 5264 5264 5263 5263 5262 5261 5260 5260
5442 5440 5437 5435 5432 5430 5428 5425 5422 5419 5416 5412 5409 5406 5402 5399 5395 5392 5387 5384 5380 5376 5372 5367 5364 5359 5355 5350 5345 5340 5334 5329 5324 5319 5314 5310 5306 5302 5299 5295 5292 5290 5287 5285 5283 5281 5279 5277 5276 5274 5273 5271 5271 5270 5268 5266 5265 5264 5263 5262 5261 5261 5261 5260 5259 5258 5257 5256 5255
5438 5436 5433 5430 5428 5425 5422 5420 5417 5414 5411 5407 5404 5400 5397 5393 5388 5385 5381 5377 5373 5369 5365 5361 5356 5352 5347 5342 5337 5333 5327 5322 5317 5313 5308 5304 5300 5297 5294 5291 5288 5286 5284 5282 5281 5279 5277 5276 5274 5272 5270 5269 5268 5267 5265 5264 5263 5261 5261 5259 5258 5257 5257 5256 5255 5253 5253 5252 5251
5434 5432 5429 5426 5423 5420 5417 5414 5412 5409 5405 5402 5398 5394 5391 5386 5382 5379 5375 5371 5368 5363 5358 5354 5349 5344 5340 5334 5329 5325 5321 5315 5311 5307 5303 5299 5295 5293 5290 5287 5285 5283 5281 5280 5278 5277 5275 5273 5271 5269 5268 5266 5265 5264 5263 5261 5260 5259 5258 5257 5255 5255 5253 5252 5251 5250 5249 5248 5247
5430 5427 5425 5422 5419 5415 5413 5409 5407 5403 5400 5396 5393 5389 5385 5381 5377 5372 5368 5364 5360 5357 5352 5347 5342 5337 5333 5328 5322 5318 5314 5310 5305 5301 5297 5294 5291 5288 5286 5284 5282 5280 5279 5277 5276 5274 5273 5271 5269 5268 5266 5264 5263 5262 5260 5259 5258 5257 5256 5254 5253 5252 5251 5250 5248 5247 5246 5244 5244
5426 5423 5420 5417 5414 5411 5407 5405 5401 5397 5394 5390 5386 5383 5379 5374 5370 5366 5362 5357 5353 5350 5345 5341 5336 5331 5326 5321 5316 5312 5307 5304 5300 5296 5292 5290 5287 5285 5283 5281 5280 5278 5277 5275 5273 5273 5271 5269 5268 5266 5264 5262 5261 5259 5258 5257 5255 5254 5253 5252 5250 5249 5248 5247 5246 5244 5242 5241 5240
5422 5418 5416 5413 5409 5406 5403 5399 5396 5391 5388 5384 5381 5377 5373 5369 5364 5360 5356 5351 5347 5343 5339 5335 5330 5325 5320 5315 5311 5306 5302 5298 5295 5292 5289 5286 5284 5282 5280 5279 5277 5276 5274 5272 5271 5270 5269 5267 5265 5264 5262 5261 5259 5257 5256 5255 5253 5251 5250 5248 5247 5246 5244 5243 5242 5241 5240 5238 5237
5417 5414 5411 5408 5404 5401 5398 5394 5390 5386 5382 5378 5375 5371 5367 5363 5359 5354 5350 5345 5341 5337 5333 5329 5324 5320 5314 5310 5305 5301 5297 5293 5291 5288 5285 5283 5281 5279 5277 5276 5274 5273 5271 5270 5269 5268 5266 5265 5263 5261 5259 5258 5256 5255 5253 5251 5250 5248 5247 5245 5244 5243 5241 5240 5239 5238 5236 5235 5233
5413 5410 5406 5403 5400 5397 5393 5389 5385 5381 5377 5373 5369 5365 5361 5357 5353 5349 5345 5340 5336 5332 5327 5323 5318 5313 5309 5305 5300 5296 5293 5289 5287 5285 5282 5280 5278 5276 5275 5273 5271 5271 5269 5268 5267 5265 5264 5262 5260 5258 5256 5254 5252 5250 5249 5246 5246 5243 5243 5241 5239 5239 5237 5236 5235 5234 5232 5231 5229
5408 5405 5402 5399 5396 5392 5388 5384 5380 5376 5372 5368 5363 5360 5356 5352 5348 5344 5339 5335 5331 5326 5322 5317 5313 5308 5304 5299 5296 5292 5288 5285 5283 5281 5278 5277 5274 5273 5272 5271 5269 5268 5266 5265 5263 5262 5260 5258 5256 5254 5252 5250 5248 5246 5244 5243 5240 5239 5238 5237 5236 5234 5233 5231 5230 5228 5227 5226 5224
5404 5401 5398 5395 5391 5387 5383 5379 5375 5371 5367 5363 5358 5355 5350 5346 5342 5338 5334 5329 5325 5320 5316 5312 5307 5303 5298 5294 5291 5287 5284 5281 5279 5277 5275 5273 5272 5270 5269 5268 5266 5265 5263 5261 5260 5258 5257 5255 5253 5251 5248 5246 5244 5242 5240 5238 5237 5235 5233 5232 5231 5230 5229 5228 5225 5223 5221 5220 5219
5400 5396 5393 5390 5387 5382 5378 5374 5370 5366 5362 5358 5353 5349 5345 5341 5337 5333 5328 5324 5319 5314 5310 5306 5302 5298 5294 5290 5286 5283 5280 5277 5275 5273 5272 5270 5269 5267 5266 5264 5263 5261 5259 5258 5257 5255 5253 5251 5249 5247 5244 5242 5241 5238 5236 5234 5232 5231 5230 5228 5228 5226 5225 5224 5222 5220 5218 5217 5215
5396 5392 5388 5385 5381 5377 5373 5369 5365 5360 5357 5352 5348 5344 5340 5336 5332 5327 5323 5318 5313 5308 5304 5300 5296 5293 5289 5285 5282 5279 5276 5274 5272 5270 5268 5267 5266 5264 5263 5261 5259 5258 5256 5255 5253 5252 5250 5248 5245 5243 5241 5239 5237 5235 5233 5231 5229 5228 5225 5224 5223 5222 5221 5220 5219 5218 5216 5214 5212
5391 5387 5384 5380 5376 5372 5368 5364 5359 5355 5351 5348 5343 5339 5335 5330 5326 5322 5317 5312 5308 5303 5299 5295 5292 5288 5285 5281 5278 5275 5272 5270 5268 5266 5265 5263 5262 5261 5259 5258 5256 5255 5253 5252 5250 5248 5246 5244 5242 5240 5237 5235 5233 5231 5229 5228 5226 5224 5222 5220 5219 5218 5217 5216 5215 5214 5213 5211 5209
5386 5382 5379 5375 5371 5367 5363 5359 5354 5351 5346 5342 5338 5334 5329 5325 5321 5316 5312 5306 5302 5298 5294 5290 5287 5283 5280 5277 5274 5271 5269 5267 5265 5264 5262 5260 5259 5258 5256 5255 5253 5252 5250 5249 5247 5244 5243 5241 5239 5237 5234 5231 5229 5227 5226 5224 5222 5221 5219 5217 5216 5214 5212 5211 5211 5210 5209 5207 5206
5381 5378 5374 5370 5366 5362 5358 5354 5350 5345 5341 5337 5333 5328 5324 5320 5315 5311 5306 5301 5297 5293 5289 5286 5282 5279 5276 5273 5270 5268 5266 5264 5263 5260 5259 5258 5256 5255 5253 5251 5250 5248 5247 5246 5244 5241 5240 5237 5236 5233 5231 5228 5226 5224 5222 5220 5219 5218 5216 5214 5212 5210 5209 5207 5206 5205 5204 5203 5202
5377 5373 5369 5365 5361 5357 5353 5349 5345 5340 5336 5332 5328 5324 5319 5314 5309 5305 5300 5296 5292 5288 5284 5282 5278 5275 5272 5269 5267 5265 5263 5261 5260 5258 5256 5255 5253 5251 5249 5248 5247 5246 5244 5243 5240 5239 5237 5235 5232 5231 5228 5226 5223 5221 5219 5217 5215 5214 5212 5211 5209 5207 5206 5204 5202 5201 5200 5199 5198
5372 5369 5364 5360 5356 5352 5348 5343 5340 5335 5331 5327 5323 5318 5314 5308 5304 5299 5295 5290 5287 5283 5280 5278 5275 5271 5268 5266 5264 5262 5260 5259 5257 5255 5253 5251 5250 5248 5246 5245 5243 5242 5241 5240 5238 5236 5234 5232 5229 5227 5225 5223 5221 5218 5216 5213 5212 5210 5209 5207 5205 5203 5202 5200 5199 5198 5197 5196 5195
5368 5364 5360 5355 5351 5346 5343 5339 5335 5330 5326 5322 5317 5313 5308 5303 5298 5294 5290 5286 5282 5279 5276 5274 5271 5268 5265 5263 5261 5260 5258 5256 5254 5252 5250 5247 5246 5245 5243 5241 5240 5239 5238 5237 5235 5233 5231 5229 5227 5225 5223 5221 5218 5216 5213 5211 5209 5207 5205 5204 5202 5200 5199 5197 5196 5194 5194 5193 5192
5364 5360 5355 5351 5346 5342 5338 5334 5330 5326 5321 5316 5312 5307 5303 5297 5293 5289 5285 5282 5278 5275 5272 5270 5267 5264 5262 5260 5258 5256 5255 5253 5251 5248 5246 5244 5243 5241 5240 5238 5237 5236 5235 5234 5232 5230 5228 5226 5224 5222 5221 5218 5215 5213 5210 5208 5206 5204 5202 5200 5199 5197 5196 5194 5193 5192 5190 5190 5189
5360 5355 5350 5346 5342 5338 5334 5329 5326 5321 5316 5311 5307 5302 5298 5293 5288 5284 5280 5277 5274 5271 5269 5266 5264 5261 5259 5257 5254 5253 5251 5249 5247 5246 5244 5242 5239 5238 5237 5236 5234 5233 5232 5231 5229 5227 5225 5223 5221 5220 5218 5215 5213 5210 5207 5205 5203 5201 5200 5198 5196 5195 5193 5192 5190 5189 5189 5187 5186
5356 5351 5346 5341 5338 5334 5329 5325 5320 5316 5311 5306 5302 5297 5292 5288 5284 5280 5277 5273 5271 5268 5265 5263 5261 5258 5256 5254 5252 5250 5248 5247 5244 5242 5241 5238 5237 5235 5233 5232 5231 5230 5228 5227 5226 5224 5222 5220 5219 5217 5215 5212 5210 5207 5205 5202 5201 5199 5197 5195 5194 5192 5191 5189 5188 5187 5186 5185 5184
5351 5346 5341 5337 5333 5329 5325 5320 5316 5311 5306 5301 5297 5293 5288 5283 5279 5276 5273 5271 5267 5264 5262 5260 5258 5255 5253 5251 5249 5247 5245 5243 5241 5240 5237 5235 5233 5231 5230 5229 5227 5226 5225 5224 5223 5221 5219 5217 5216 5214 5212 5209 5207 5204 5202 5199 5198 5196 5195 5193 5192 5191 5189 5188 5187 5185 5184 5184 5182
5347 5342 5337 5333 5329 5324 5320 5315 5311 5306 5301 5296 5292 5288 5283 5279 5276 5272 5270 5267 5264 5261 5259 5256 5254 5252 5250 5248 5246 5245 5242 5240 5239 5237 5235 5232 5230 5228 5226 5225 5224 5222 5221 5220 5219 5217 5215 5214 5212 5211 5208 5206 5204 5202 5199 5198 5195 5194 5192 5191 5190 5189 5187 5186 5185 5184 5183 5182 5181
5343 5338 5333 5328 5325 5320 5316 5311 5306 5302 5296 5292 5287 5283 5279 5276 5272 5269 5266 5264 5261 5258 5256 5254 5252 5250 5248 5246 5244 5242 5240 5238 5236 5233 5231 5229 5226 5224 5223 5221 5220 5219 5218 5217 5215 5214 5212 5210 5209 5208 5206 5204 5201 5199 5197 5195 5193 5192 5191 5189 5188 5187 5185 5185 5184 5182 5182 5181 5180
5338 5333 5329 5325 5320 5315 5311 5306 5301 5297 5292 5287 5283 5279 5275 5272 5269 5266 5263 5261 5258 5255 5253 5251 5249 5247 5246 5244 5242 5240 5237 5235 5233 5230 5227 5226 5224 5221 5219 5218 5216 5216 5214 5213 5212 5211 5209 5208 5206 5205 5203 5201 5199 5197 5195 5193 5192 5191 5189 5188 5186 5186 5185 5184 5183 5182 5180 5179 5179
5334 5329 5325 5320 5316 5311 5307 5301 5297 5292 5288 5283 5279 5275 5272 5269 5266 5263 5261 5258 5255 5253 5251 5249 5247 5245 5243 5241 5239 5236 5234 5231 5229 5227 5224 5222 5220 5219 5217 5214 5213 5212 5211 5210 5209 5208 5206 5204 5203 5202 5201 5199 5196 5194 5193 5191 5190 5188 5188 5187 5186 5185 5184 5183 5182 5181 5180 5179 5178
5330 5325 5320 5315 5312 5307 5302 5298 5292 5288 5284 5280 5276 5272 5268 5265 5263 5261 5258 5255 5253 5251 5248 5246 5244 5242 5240 5238 5235 5233 5231 5229 5227 5224 5222 5220 5218 5216 5215 5212 5210 5209 5208 5207 5206 5204 5203 5201 5201 5199 5198 5197 5194 5193 5191 5190 5188 5187 5187 5186 5185 5185 5184 5183 5182 5180 5179 5178 5177
5325 5321 5316 5312 5307 5303 5298 5294 5289 5284 5280 5276 5272 5268 5266 5262 5260 5258 5256 5253 5251 5249 5246 5244 5242 5239 5237 5235 5232 5230 5228 5226 5224 5221 5220 5217 5216 5214 5212 5209 5208 5207 5206 5204 5203 5202 5200 5199 5198 5197 5196 5194 5193 5191 5189 5188 5187 5186 5186 5186 5185 5184 5184 5182 5181 5180 5178 5177 5176